| time (UTC) | temp C | wind direction | speed KPH | gust KPH | rain 1hr cm | rain 24hr cm | rain mn cm | humidity % | barometer mb |
| 20260506122738 | 20 | 263 | 14.5 | 20.9 | 0.00 | 0.00 | 0.00 | 70 | 1010.1 |
| 20260506122526 | 20 | 248 | 6.4 | 14.5 | 0.00 | 0.00 | 0.00 | 70 | 1010.2 |
| 20260506122235 | 20 | 218 | 4.8 | 8.0 | 0.00 | 0.00 | 0.00 | 70 | 1010.0 |
| 20260506121733 | 20 | 225 | 4.8 | 4.8 | 0.00 | 0.00 | 0.00 | 70 | 1010.2 |
| 20260506121519 | 20 | 233 | 4.8 | 14.5 | 0.00 | 0.00 | 0.00 | 70 | 1010.4 |
| 20260506121230 | 20 | 233 | 3.2 | 3.2 | 0.00 | 0.00 | 0.00 | 70 | 1010.2 |
| 20260506120727 | 20 | 252 | 8.0 | 11.3 | 0.00 | 0.00 | 0.00 | 70 | 1010.1 |
| 20260506120527 | 20 | 223 | 9.7 | 17.7 | 0.00 | 0.00 | 0.00 | 70 | 1010.5 |
| 20260506120225 | 20 | 217 | 9.7 | 11.3 | 0.00 | 0.00 | 0.00 | 70 | 1010.3 |
| 20260506115723 | 20 | 237 | 3.2 | 3.2 | 0.00 | 0.00 | 0.00 | 70 | 1010.2 |
| 20260506115518 | 20 | 232 | 8.0 | 20.9 | 0.00 | 0.00 | 0.00 | 70 | 1010.6 |
| 20260506115221 | 20 | 219 | 14.5 | 16.1 | 0.00 | 0.00 | 0.00 | 70 | 1010.5 |
| 20260506114718 | 20 | 266 | 9.7 | 12.9 | 0.00 | 0.00 | 0.00 | 71 | 1010.4 |
| 20260506114546 | 19 | 237 | 6.4 | 20.9 | 0.00 | 0.00 | 0.00 | 71 | 1010.6 |
| 20260506114216 | 19 | 243 | 3.2 | 3.2 | 0.00 | 0.00 | 0.00 | 71 | 1010.3 |
| 20260506113714 | 19 | 249 | 9.7 | 16.1 | 0.00 | 0.00 | 0.00 | 71 | 1010.4 |
| 20260506113519 | 19 | 229 | 4.8 | 14.5 | 0.00 | 0.00 | 0.00 | 72 | 1010.6 |
| 20260506113211 | 19 | 259 | 1.6 | 1.6 | 0.00 | 0.00 | 0.00 | 72 | 1010.4 |
| 20260506112707 | 19 | 243 | 1.6 | 1.6 | 0.00 | 0.00 | 0.00 | 73 | 1010.3 |
| 20260506112526 | 18 | 227 | 3.2 | 9.7 | 0.00 | 0.00 | 0.00 | 73 | 1010.6 |
| 20260506112205 | 18 | 226 | 3.2 | 3.2 | 0.00 | 0.00 | 0.00 | 73 | 1010.4 |
| 20260506111702 | 18 | 233 | 9.7 | 12.9 | 0.00 | 0.00 | 0.00 | 74 | 1010.5 |
| 20260506111539 | 18 | 233 | 4.8 | 14.5 | 0.00 | 0.00 | 0.00 | 74 | 1010.6 |
| 20260506111200 | 18 | 244 | 8.0 | 11.3 | 0.00 | 0.00 | 0.00 | 74 | 1010.3 |
| 20260506110657 | 18 | 234 | 6.4 | 8.0 | 0.00 | 0.00 | 0.00 | 75 | 1010.2 |
| 20260506110547 | 18 | 240 | 1.6 | 9.7 | 0.00 | 0.00 | 0.00 | 76 | 1010.5 |
| 20260506110155 | 18 | 228 | 3.2 | 3.2 | 0.00 | 0.00 | 0.00 | 76 | 1010.3 |
| 20260506105651 | 18 | 227 | 3.2 | 3.2 | 0.00 | 0.00 | 0.00 | 76 | 1010.2 |
| 20260506105518 | 18 | 235 | 3.2 | 11.3 | 0.00 | 0.00 | 0.00 | 76 | 1010.3 |
| 20260506105148 | 18 | 236 | 0.0 | 0.0 | 0.00 | 0.00 | 0.00 | 77 | 1010.2 |
| 20260506104646 | 18 | 239 | 1.6 | 1.6 | 0.00 | 0.00 | 0.00 | 77 | 1010.2 |
| 20260506104527 | 17 | 234 | 3.2 | 11.3 | 0.00 | 0.00 | 0.00 | 77 | 1010.5 |
| 20260506104143 | 17 | 197 | 3.2 | 4.8 | 0.00 | 0.00 | 0.00 | 77 | 1010.2 |
| 20260506103640 | 17 | 248 | 0.0 | 1.6 | 0.00 | 0.00 | 0.00 | 77 | 1010.3 |
| 20260506103518 | 17 | 231 | 4.8 | 9.7 | 0.00 | 0.00 | 0.00 | 77 | 1010.4 |
| 20260506103137 | 17 | 232 | 4.8 | 4.8 | 0.00 | 0.00 | 0.00 | 77 | 1010.2 |
| 20260506102635 | 17 | 232 | 4.8 | 4.8 | 0.00 | 0.00 | 0.00 | 78 | 1010.0 |
| 20260506102526 | 17 | 237 | 3.2 | 11.3 | 0.00 | 0.00 | 0.00 | 78 | 1010.4 |
| 20260506102133 | 17 | 244 | 6.4 | 8.0 | 0.00 | 0.00 | 0.00 | 78 | 1010.1 |
| 20260506101629 | 17 | 246 | 0.0 | 0.0 | 0.00 | 0.00 | 0.00 | 78 | 1010.2 |
| 20260506101519 | 17 | 235 | 3.2 | 9.7 | 0.00 | 0.00 | 0.00 | 78 | 1010.4 |
| 20260506101126 | 17 | 234 | 1.6 | 3.2 | 0.00 | 0.00 | 0.00 | 78 | 1010.2 |
| 20260506100625 | 17 | 243 | 0.0 | 0.0 | 0.00 | 0.00 | 0.00 | 79 | 1010.1 |
| 20260506100527 | 17 | 234 | 3.2 | 9.7 | 0.00 | 0.00 | 0.00 | 79 | 1010.2 |
| 20260506100122 | 17 | 226 | 1.6 | 1.6 | 0.00 | 0.00 | 0.00 | 79 | 1010.0 |
| 20260506095621 | 17 | 250 | 1.6 | 3.2 | 0.00 | 0.00 | 0.00 | 79 | 1010.1 |
| 20260506095540 | 17 | 243 | 1.6 | 3.2 | 0.00 | 0.00 | 0.00 | 79 | 1010.3 |
| 20260506095117 | 17 | 241 | 0.0 | 1.6 | 0.00 | 0.00 | 0.00 | 79 | 1010.1 |
| 20260506094614 | 17 | 249 | 0.0 | 0.0 | 0.00 | 0.00 | 0.00 | 79 | 1010.2 |
| 20260506094547 | 17 | 233 | 1.6 | 8.0 | 0.00 | 0.00 | 0.00 | 79 | 1010.3 |
| 20260506094112 | 17 | 241 | 3.2 | 4.8 | 0.00 | 0.00 | 0.00 | 79 | 1010.2 |
| 20260506093610 | 17 | 244 | 0.0 | 0.0 | 0.00 | 0.00 | 0.00 | 79 | 1010.1 |
| 20260506093519 | 17 | 243 | 1.6 | 3.2 | 0.00 | 0.00 | 0.00 | 78 | 1010.3 |
| 20260506093107 | 17 | 256 | 1.6 | 1.6 | 0.00 | 0.00 | 0.00 | 78 | 1010.1 |
| 20260506092605 | 17 | 243 | 1.6 | 3.2 | 0.00 | 0.00 | 0.00 | 78 | 1010.0 |
| 20260506092527 | 17 | 235 | 1.6 | 8.0 | 0.00 | 0.00 | 0.00 | 78 | 1010.3 |
| 20260506092101 | 17 | 242 | 1.6 | 3.2 | 0.00 | 0.00 | 0.00 | 78 | 1010.0 |
| 20260506091600 | 17 | 217 | 3.2 | 4.8 | 0.00 | 0.00 | 0.00 | 78 | 1010.1 |
| 20260506091539 | 17 | 241 | 1.6 | 3.2 | 0.00 | 0.00 | 0.00 | 77 | 1010.4 |
| 20260506091057 | 17 | 248 | 0.0 | 1.6 | 0.00 | 0.00 | 0.00 | 77 | 1010.0 |
| 20260506090555 | 17 | 252 | 0.0 | 0.0 | 0.00 | 0.00 | 0.00 | 77 | 1010.2 |
| 20260506090547 | 17 | 238 | 1.6 | 4.8 | 0.00 | 0.00 | 0.00 | 77 | 1010.4 |
| 20260506090051 | 17 | 235 | 1.6 | 1.6 | 0.00 | 0.00 | 0.00 | 76 | 1010.0 |
| 20260506085548 | 17 | 248 | 0.0 | 1.6 | 0.00 | 0.00 | 0.00 | 76 | 1010.1 |
| 20260506085519 | 17 | 245 | 0.0 | 1.6 | 0.00 | 0.00 | 0.00 | 76 | 1010.5 |
| 20260506085044 | 17 | 241 | 1.6 | 1.6 | 0.00 | 0.00 | 0.00 | 76 | 1010.3 |
| 20260506084541 | 18 | 230 | 3.2 | 3.2 | 0.00 | 0.00 | 0.00 | 76 | 1010.3 |
| 20260506084527 | 18 | 233 | 3.2 | 8.0 | 0.00 | 0.00 | 0.00 | 76 | 1010.5 |
| 20260506084037 | 18 | 246 | 1.6 | 1.6 | 0.00 | 0.00 | 0.00 | 75 | 1010.4 |
| 20260506083535 | 18 | 191 | 4.8 | 4.8 | 0.00 | 0.00 | 0.00 | 75 | 1010.3 |
| 20260506083519 | 18 | 228 | 3.2 | 11.3 | 0.00 | 0.00 | 0.00 | 75 | 1010.6 |
| 20260506083032 | 18 | 231 | 1.6 | 1.6 | 0.00 | 0.00 | 0.00 | 75 | 1010.4 |
| 20260506082529 | 18 | 208 | 4.8 | 4.8 | 0.00 | 0.00 | 0.00 | 74 | 1010.3 |
| 20260506082527 | 18 | 224 | 4.8 | 11.3 | 0.00 | 0.00 | 0.00 | 74 | 1010.5 |
| 20260506082025 | 18 | 231 | 6.4 | 8.0 | 0.00 | 0.00 | 0.00 | 74 | 1010.3 |
| 20260506081523 | 18 | 218 | 6.4 | 8.0 | 0.00 | 0.00 | 0.00 | 74 | 1010.3 |
| 20260506081519 | 18 | 233 | 3.2 | 9.7 | 0.00 | 0.00 | 0.00 | 74 | 1010.7 |
| 20260506081020 | 18 | 243 | 3.2 | 3.2 | 0.00 | 0.00 | 0.00 | 74 | 1010.4 |
| 20260506080547 | 18 | 239 | 1.6 | 4.8 | 0.00 | 0.00 | 0.00 | 73 | 1010.6 |
| 20260506080517 | 18 | 243 | 0.0 | 0.0 | 0.00 | 0.00 | 0.00 | 73 | 1010.5 |
| 20260506073519 | 18 | 230 | 4.8 | 11.3 | 0.00 | 0.00 | 0.00 | 71 | 1010.6 |
| 20260506073501 | 18 | 251 | 1.6 | 3.2 | 0.00 | 0.00 | 0.00 | 71 | 1010.5 |
| 20260506072958 | 18 | 235 | 3.2 | 3.2 | 0.00 | 0.00 | 0.00 | 71 | 1010.4 |
| 20260506072527 | 18 | 234 | 1.6 | 4.8 | 0.00 | 0.00 | 0.00 | 71 | 1010.6 |
| 20260506072455 | 18 | 246 | 1.6 | 1.6 | 0.00 | 0.00 | 0.00 | 71 | 1010.2 |
| 20260506071953 | 18 | 240 | 1.6 | 1.6 | 0.00 | 0.00 | 0.00 | 71 | 1010.3 |
| 20260506071532 | 18 | 240 | 1.6 | 3.2 | 0.00 | 0.00 | 0.00 | 70 | 1010.6 |
| 20260506071450 | 18 | 246 | 0.0 | 1.6 | 0.00 | 0.00 | 0.00 | 70 | 1010.3 |
| 20260506070947 | 18 | 213 | 6.4 | 9.7 | 0.00 | 0.00 | 0.00 | 70 | 1010.4 |
| 20260506070527 | 19 | 244 | 3.2 | 9.7 | 0.00 | 0.00 | 0.00 | 69 | 1010.7 |
| 20260506070444 | 19 | 238 | 3.2 | 3.2 | 0.00 | 0.00 | 0.00 | 69 | 1010.5 |
| 20260506062422 | 19 | 229 | 3.2 | 4.8 | 0.00 | 0.00 | 0.00 | 68 | 1010.4 |
| 20260506061917 | 19 | 246 | 1.6 | 1.6 | 0.00 | 0.00 | 0.00 | 67 | 1010.5 |
| 20260506061532 | 19 | 230 | 1.6 | 3.2 | 0.00 | 0.00 | 0.00 | 66 | 1010.7 |
| 20260506061414 | 19 | 272 | 1.6 | 3.2 | 0.00 | 0.00 | 0.00 | 67 | 1010.4 |
| 20260506060913 | 19 | 243 | 1.6 | 1.6 | 0.00 | 0.00 | 0.00 | 66 | 1010.5 |
| 20260506060527 | 19 | 226 | 4.8 | 12.9 | 0.00 | 0.00 | 0.00 | 66 | 1010.6 |
| 20260506060410 | 19 | 234 | 0.0 | 1.6 | 0.00 | 0.00 | 0.00 | 65 | 1010.4 |
| 20260506051342 | 20 | 235 | 6.4 | 8.0 | 0.00 | 0.00 | 0.00 | 61 | 1010.8 |
| 20260506050839 | 20 | 231 | 4.8 | 4.8 | 0.00 | 0.00 | 0.00 | 60 | 1011.0 |
| 20260506050527 | 20 | 221 | 4.8 | 12.9 | 0.00 | 0.00 | 0.00 | 60 | 1011.3 |
| 20260506050337 | 20 | 232 | 1.6 | 4.8 | 0.00 | 0.00 | 0.00 | 61 | 1011.0 |
| 20260506044827 | 20 | 245 | 4.8 | 4.8 | 0.00 | 0.00 | 0.00 | 59 | 1011.0 |
| 20260506044527 | 20 | 235 | 6.4 | 22.5 | 0.00 | 0.00 | 0.00 | 59 | 1011.3 |
| 20260506044325 | 20 | 253 | 1.6 | 3.2 | 0.00 | 0.00 | 0.00 | 59 | 1011.0 |
| 20260506043822 | 20 | 251 | 1.6 | 3.2 | 0.00 | 0.00 | 0.00 | 60 | 1010.9 |
| 20260506043519 | 20 | 233 | 1.6 | 8.0 | 0.00 | 0.00 | 0.00 | 59 | 1011.1 |
| 20260506043319 | 20 | 247 | 1.6 | 1.6 | 0.00 | 0.00 | 0.00 | 59 | 1010.9 |
| 20260506042817 | 21 | 236 | 3.2 | 3.2 | 0.00 | 0.00 | 0.00 | 59 | 1010.9 |
| 20260506042607 | 21 | 223 | 3.2 | 11.3 | 0.00 | 0.00 | 0.00 | 58 | 1011.1 |
| 20260506042317 | 21 | 223 | 4.8 | 4.8 | 0.00 | 0.00 | 0.00 | 58 | 1010.9 |
| 20260506041815 | 21 | 269 | 3.2 | 3.2 | 0.00 | 0.00 | 0.00 | 58 | 1011.0 |
| 20260506041519 | 21 | 233 | 1.6 | 8.0 | 0.00 | 0.00 | 0.00 | 58 | 1011.1 |
| 20260506041311 | 21 | 250 | 1.6 | 1.6 | 0.00 | 0.00 | 0.00 | 58 | 1010.9 |
| 20260506040809 | 21 | 196 | 4.8 | 4.8 | 0.00 | 0.00 | 0.00 | 57 | 1010.9 |
| 20260506040527 | 21 | 236 | 3.2 | 4.8 | 0.00 | 0.00 | 0.00 | 58 | 1011.1 |
| 20260506040306 | 21 | 234 | 4.8 | 4.8 | 0.00 | 0.00 | 0.00 | 58 | 1010.9 |
| 20260506035802 | 21 | 230 | 1.6 | 1.6 | 0.00 | 0.00 | 0.00 | 57 | 1010.8 |
| 20260506035519 | 21 | 223 | 4.8 | 9.7 | 0.00 | 0.00 | 0.00 | 57 | 1011.1 |
| 20260506035259 | 21 | 194 | 6.4 | 9.7 | 0.00 | 0.00 | 0.00 | 57 | 1010.9 |
| 20260506034756 | 21 | 239 | 0.0 | 0.0 | 0.00 | 0.00 | 0.00 | 57 | 1010.9 |
| 20260506034607 | 21 | 238 | 3.2 | 12.9 | 0.00 | 0.00 | 0.00 | 56 | 1011.1 |
| 20260506034253 | 21 | 236 | 4.8 | 4.8 | 0.00 | 0.00 | 0.00 | 56 | 1010.8 |
| 20260506033750 | 21 | 243 | 3.2 | 4.8 | 0.00 | 0.00 | 0.00 | 56 | 1011.0 |
| 20260506033519 | 21 | 233 | 4.8 | 9.7 | 0.00 | 0.00 | 0.00 | 56 | 1011.1 |
| 20260506033247 | 21 | 243 | 3.2 | 4.8 | 0.00 | 0.00 | 0.00 | 56 | 1010.9 |
| 20260506032744 | 21 | 195 | 1.6 | 3.2 | 0.00 | 0.00 | 0.00 | 55 | 1010.9 |
| 20260506032528 | 21 | 239 | 8.0 | 20.9 | 0.00 | 0.00 | 0.00 | 55 | 1011.1 |
| 20260506032241 | 21 | 271 | 4.8 | 8.0 | 0.00 | 0.00 | 0.00 | 55 | 1010.8 |
| 20260506031738 | 21 | 246 | 3.2 | 3.2 | 0.00 | 0.00 | 0.00 | 56 | 1010.8 |
| 20260506031520 | 21 | 233 | 4.8 | 12.9 | 0.00 | 0.00 | 0.00 | 55 | 1010.9 |
| 20260506031235 | 21 | 232 | 3.2 | 3.2 | 0.00 | 0.00 | 0.00 | 55 | 1010.6 |
| 20260506030733 | 21 | 239 | 4.8 | 8.0 | 0.00 | 0.00 | 0.00 | 55 | 1010.7 |
| 20260506030527 | 21 | 228 | 4.8 | 16.1 | 0.00 | 0.00 | 0.00 | 55 | 1010.9 |
| 20260506030231 | 21 | 236 | 4.8 | 4.8 | 0.00 | 0.00 | 0.00 | 55 | 1010.7 |
| 20260506025727 | 22 | 233 | 4.8 | 4.8 | 0.00 | 0.00 | 0.00 | 54 | 1010.8 |
| 20260506025540 | 22 | 238 | 3.2 | 8.0 | 0.00 | 0.00 | 0.00 | 54 | 1010.9 |
| 20260506025224 | 22 | 247 | 4.8 | 4.8 | 0.00 | 0.00 | 0.00 | 54 | 1010.6 |
| 20260506024720 | 22 | 212 | 12.9 | 16.1 | 0.00 | 0.00 | 0.00 | 53 | 1010.6 |
| 20260506024548 | 22 | 232 | 8.0 | 24.1 | 0.00 | 0.00 | 0.00 | 52 | 1010.9 |
| 20260506024217 | 22 | 240 | 11.3 | 14.5 | 0.00 | 0.00 | 0.00 | 52 | 1010.8 |
| 20260506023713 | 22 | 199 | 9.7 | 11.3 | 0.00 | 0.00 | 0.00 | 52 | 1010.8 |
| 20260506023519 | 22 | 225 | 8.0 | 17.7 | 0.00 | 0.00 | 0.00 | 52 | 1011.0 |
| 20260506023211 | 22 | 234 | 11.3 | 12.9 | 0.00 | 0.00 | 0.00 | 52 | 1010.6 |
| 20260506022707 | 22 | 225 | 8.0 | 9.7 | 0.00 | 0.00 | 0.00 | 51 | 1010.8 |
| 20260506022527 | 22 | 227 | 4.8 | 12.9 | 0.00 | 0.00 | 0.00 | 52 | 1010.9 |
| 20260506022205 | 22 | 229 | 0.0 | 1.6 | 0.00 | 0.00 | 0.00 | 51 | 1010.6 |
| 20260506021703 | 22 | 208 | 3.2 | 4.8 | 0.00 | 0.00 | 0.00 | 51 | 1010.4 |
| 20260506021520 | 22 | 230 | 8.0 | 20.9 | 0.00 | 0.00 | 0.00 | 50 | 1010.8 |
| 20260506021200 | 22 | 247 | 14.5 | 17.7 | 0.00 | 0.00 | 0.00 | 50 | 1010.6 |
| 20260506020657 | 22 | 193 | 6.4 | 8.0 | 0.00 | 0.00 | 0.00 | 50 | 1010.5 |
| 20260506020528 | 23 | 233 | 8.0 | 24.1 | 0.00 | 0.00 | 0.00 | 49 | 1010.7 |
| 20260506020154 | 23 | 235 | 6.4 | 8.0 | 0.00 | 0.00 | 0.00 | 49 | 1010.4 |
| 20260506015652 | 24 | 254 | 9.7 | 11.3 | 0.00 | 0.00 | 0.00 | 43 | 1010.5 |
| 20260506015520 | 24 | 228 | 9.7 | 22.5 | 0.00 | 0.00 | 0.00 | 42 | 1010.7 |
| 20260506015149 | 24 | 209 | 8.0 | 11.3 | 0.00 | 0.00 | 0.00 | 42 | 1010.5 |
| 20260506014647 | 24 | 236 | 8.0 | 14.5 | 0.00 | 0.00 | 0.00 | 42 | 1010.3 |
| 20260506014528 | 24 | 245 | 6.4 | 17.7 | 0.00 | 0.00 | 0.00 | 41 | 1010.5 |
| 20260506014142 | 24 | 246 | 9.7 | 12.9 | 0.00 | 0.00 | 0.00 | 41 | 1010.1 |
| 20260506013640 | 24 | 226 | 4.8 | 4.8 | 0.00 | 0.00 | 0.00 | 41 | 1010.0 |
| 20260506013520 | 24 | 221 | 9.7 | 27.4 | 0.00 | 0.00 | 0.00 | 41 | 1010.3 |
| 20260506013137 | 24 | 216 | 14.5 | 24.1 | 0.00 | 0.00 | 0.00 | 41 | 1010.1 |
| 20260506012633 | 25 | 217 | 6.4 | 8.0 | 0.00 | 0.00 | 0.00 | 40 | 1009.9 |
| 20260506012528 | 25 | 231 | 6.4 | 12.9 | 0.00 | 0.00 | 0.00 | 40 | 1010.1 |
| 20260506012130 | 25 | 258 | 4.8 | 4.8 | 0.00 | 0.00 | 0.00 | 40 | 1010.1 |
| 20260506011628 | 25 | 210 | 6.4 | 11.3 | 0.00 | 0.00 | 0.00 | 39 | 1010.0 |
| 20260506011520 | 25 | 239 | 6.4 | 16.1 | 0.00 | 0.00 | 0.00 | 39 | 1009.9 |
| 20260506011123 | 25 | 239 | 3.2 | 3.2 | 0.00 | 0.00 | 0.00 | 39 | 1009.6 |
| 20260506010623 | 25 | 220 | 8.0 | 9.7 | 0.00 | 0.00 | 0.00 | 39 | 1009.7 |
| 20260506010528 | 25 | 230 | 14.5 | 27.4 | 0.00 | 0.00 | 0.00 | 38 | 1009.9 |
| 20260506010119 | 25 | 225 | 11.3 | 16.1 | 0.00 | 0.00 | 0.00 | 39 | 1009.7 |
| 20260506005616 | 25 | 221 | 6.4 | 9.7 | 0.00 | 0.00 | 0.00 | 38 | 1009.7 |
| 20260506005520 | 25 | 243 | 6.4 | 16.1 | 0.00 | 0.00 | 0.00 | 38 | 1009.8 |
| 20260506005112 | 25 | 205 | 3.2 | 3.2 | 0.00 | 0.00 | 0.00 | 38 | 1009.5 |
| 20260506004609 | 25 | 229 | 9.7 | 14.5 | 0.00 | 0.00 | 0.00 | 37 | 1009.4 |
| 20260506004528 | 25 | 221 | 6.4 | 16.1 | 0.00 | 0.00 | 0.00 | 37 | 1009.7 |
| 20260506004106 | 25 | 210 | 4.8 | 8.0 | 0.00 | 0.00 | 0.00 | 36 | 1009.3 |
| 20260506003603 | 25 | 250 | 4.8 | 9.7 | 0.00 | 0.00 | 0.00 | 35 | 1009.3 |
| 20260506003520 | 25 | 222 | 6.4 | 16.1 | 0.00 | 0.00 | 0.00 | 35 | 1009.5 |
| 20260506003059 | 25 | 219 | 9.7 | 12.9 | 0.00 | 0.00 | 0.00 | 35 | 1009.3 |
| 20260506002555 | 26 | 247 | 6.4 | 9.7 | 0.00 | 0.00 | 0.00 | 34 | 1009.2 |
| 20260506002528 | 26 | 220 | 9.7 | 22.5 | 0.00 | 0.00 | 0.00 | 34 | 1009.5 |
| 20260506002051 | 26 | 241 | 4.8 | 9.7 | 0.00 | 0.00 | 0.00 | 34 | 1009.1 |
| 20260506001547 | 26 | 213 | 11.3 | 16.1 | 0.00 | 0.00 | 0.00 | 33 | 1009.1 |
| 20260506001520 | 26 | 211 | 8.0 | 16.1 | 0.00 | 0.00 | 0.00 | 33 | 1009.4 |
| 20260506001045 | 26 | 210 | 9.7 | 14.5 | 0.00 | 0.00 | 0.00 | 33 | 1009.1 |
| 20260506000542 | 26 | 257 | 6.4 | 11.3 | 0.00 | 0.00 | 0.00 | 33 | 1009.0 |
| 20260506000528 | 26 | 235 | 6.4 | 16.1 | 0.00 | 0.00 | 0.00 | 33 | 1009.2 |
| 20260506000039 | 26 | 191 | 8.0 | 11.3 | 0.00 | 0.00 | 0.00 | 32 | 1009.1 |
| 20260505235537 | 26 | 250 | 11.3 | 12.9 | 0.00 | 0.00 | 0.00 | 32 | 1009.1 |
| 20260505235520 | 26 | 241 | 9.7 | 17.7 | 0.00 | 0.00 | 0.00 | 32 | 1009.2 |
| 20260505235034 | 26 | 281 | 8.0 | 9.7 | 0.00 | 0.00 | 0.00 | 32 | 1009.0 |
| 20260505234531 | 26 | 212 | 4.8 | 4.8 | 0.00 | 0.00 | 0.00 | 32 | 1009.0 |
| 20260505234528 | 26 | 235 | 6.4 | 16.1 | 0.00 | 0.00 | 0.00 | 32 | 1009.2 |
| 20260505234027 | 26 | 264 | 9.7 | 12.9 | 0.00 | 0.00 | 0.00 | 32 | 1009.0 |
| 20260505233525 | 26 | 237 | 3.2 | 3.2 | 0.00 | 0.00 | 0.00 | 32 | 1008.8 |
| 20260505233520 | 26 | 233 | 4.8 | 12.9 | 0.00 | 0.00 | 0.00 | 31 | 1009.0 |
| 20260505233022 | 26 | 236 | 4.8 | 4.8 | 0.00 | 0.00 | 0.00 | 30 | 1008.8 |
| 20260505232528 | 26 | 244 | 4.8 | 9.7 | 0.00 | 0.00 | 0.00 | 30 | 1008.9 |
| 20260505232520 | 26 | 234 | 6.4 | 8.0 | 0.00 | 0.00 | 0.00 | 30 | 1008.7 |
| 20260505232017 | 26 | 201 | 8.0 | 14.5 | 0.00 | 0.00 | 0.00 | 30 | 1008.7 |
| 20260505231520 | 26 | 240 | 9.7 | 24.1 | 0.00 | 0.00 | 0.00 | 29 | 1008.8 |
| 20260505231514 | 26 | 240 | 11.3 | 14.5 | 0.00 | 0.00 | 0.00 | 29 | 1008.5 |
| 20260505231013 | 26 | 248 | 9.7 | 11.3 | 0.00 | 0.00 | 0.00 | 30 | 1008.6 |
| 20260505230528 | 27 | 240 | 11.3 | 32.2 | 0.00 | 0.00 | 0.00 | 29 | 1008.6 |
| 20260505230510 | 27 | 263 | 8.0 | 9.7 | 0.00 | 0.00 | 0.00 | 29 | 1008.6 |
| 20260505230007 | 27 | 234 | 11.3 | 16.1 | 0.00 | 0.00 | 0.00 | 29 | 1008.3 |
| 20260505225520 | 27 | 249 | 4.8 | 14.5 | 0.00 | 0.00 | 0.00 | 29 | 1008.6 |
| 20260505225504 | 27 | 213 | 6.4 | 9.7 | 0.00 | 0.00 | 0.00 | 29 | 1008.3 |
| 20260505224959 | 27 | 208 | 6.4 | 11.3 | 0.00 | 0.00 | 0.00 | 29 | 1008.3 |
| 20260505224531 | 27 | 261 | 9.7 | 25.7 | 0.00 | 0.00 | 0.00 | 28 | 1008.5 |
| 20260505224456 | 27 | 270 | 3.2 | 9.7 | 0.00 | 0.00 | 0.00 | 28 | 1008.2 |
| 20260505223953 | 27 | 243 | 4.8 | 9.7 | 0.00 | 0.00 | 0.00 | 28 | 1008.1 |
| 20260505223540 | 27 | 232 | 11.3 | 25.7 | 0.00 | 0.00 | 0.00 | 28 | 1008.3 |
| 20260505223450 | 27 | 286 | 4.8 | 9.7 | 0.00 | 0.00 | 0.00 | 28 | 1008.1 |
| 20260505222947 | 28 | 216 | 17.7 | 24.1 | 0.00 | 0.00 | 0.00 | 27 | 1008.1 |
| 20260505222528 | 28 | 236 | 9.7 | 22.5 | 0.00 | 0.00 | 0.00 | 27 | 1008.4 |
| 20260505222443 | 28 | 249 | 6.4 | 9.7 | 0.00 | 0.00 | 0.00 | 28 | 1008.1 |
| 20260505221939 | 28 | 241 | 11.3 | 14.5 | 0.00 | 0.00 | 0.00 | 27 | 1008.1 |
| 20260505221540 | 28 | 243 | 9.7 | 25.7 | 0.00 | 0.00 | 0.00 | 27 | 1008.2 |
| 20260505221436 | 28 | 264 | 11.3 | 12.9 | 0.00 | 0.00 | 0.00 | 27 | 1008.0 |
| 20260505220933 | 28 | 236 | 9.7 | 11.3 | 0.00 | 0.00 | 0.00 | 28 | 1008.0 |
| 20260505220528 | 27 | 251 | 9.7 | 24.1 | 0.00 | 0.00 | 0.00 | 28 | 1008.3 |
| 20260505220430 | 27 | 282 | 11.3 | 16.1 | 0.00 | 0.00 | 0.00 | 28 | 1007.9 |
| 20260505215928 | 27 | 243 | 14.5 | 22.5 | 0.00 | 0.00 | 0.00 | 28 | 1008.1 |
| 20260505215520 | 27 | 243 | 11.3 | 25.7 | 0.00 | 0.00 | 0.00 | 28 | 1008.2 |
| 20260505215426 | 27 | 247 | 4.8 | 8.0 | 0.00 | 0.00 | 0.00 | 28 | 1008.1 |
| 20260505214924 | 27 | 255 | 17.7 | 24.1 | 0.00 | 0.00 | 0.00 | 28 | 1007.9 |
| 20260505214528 | 27 | 255 | 11.3 | 29.0 | 0.00 | 0.00 | 0.00 | 28 | 1008.1 |
| 20260505214421 | 27 | 256 | 14.5 | 22.5 | 0.00 | 0.00 | 0.00 | 28 | 1007.7 |
| 20260505213918 | 27 | 291 | 14.5 | 20.9 | 0.00 | 0.00 | 0.00 | 28 | 1007.8 |
| 20260505213520 | 27 | 239 | 12.9 | 32.2 | 0.00 | 0.00 | 0.00 | 28 | 1008.0 |
| 20260505213416 | 27 | 193 | 17.7 | 27.4 | 0.00 | 0.00 | 0.00 | 28 | 1007.9 |
| 20260505212912 | 28 | 260 | 6.4 | 11.3 | 0.00 | 0.00 | 0.00 | 28 | 1007.6 |
| 20260505212528 | 27 | 242 | 14.5 | 38.6 | 0.00 | 0.00 | 0.00 | 28 | 1008.0 |
| 20260505212409 | 27 | 225 | 12.9 | 20.9 | 0.00 | 0.00 | 0.00 | 28 | 1007.6 |
| 20260505211905 | 28 | 255 | 11.3 | 17.7 | 0.00 | 0.00 | 0.00 | 28 | 1007.8 |
| 20260505211520 | 28 | 245 | 9.7 | 27.4 | 0.00 | 0.00 | 0.00 | 28 | 1007.8 |
| 20260505211403 | 28 | 287 | 12.9 | 17.7 | 0.00 | 0.00 | 0.00 | 28 | 1007.6 |
| 20260505210859 | 28 | 299 | 14.5 | 16.1 | 0.00 | 0.00 | 0.00 | 27 | 1007.7 |
| 20260505210528 | 28 | 245 | 12.9 | 32.2 | 0.00 | 0.00 | 0.00 | 27 | 1007.8 |
| 20260505210356 | 28 | 246 | 16.1 | 22.5 | 0.00 | 0.00 | 0.00 | 27 | 1007.6 |
| 20260505205853 | 28 | 240 | 11.3 | 17.7 | 0.00 | 0.00 | 0.00 | 27 | 1007.7 |
| 20260505205520 | 28 | 239 | 14.5 | 32.2 | 0.00 | 0.00 | 0.00 | 27 | 1007.9 |
| 20260505205351 | 28 | 228 | 19.3 | 29.0 | 0.00 | 0.00 | 0.00 | 27 | 1007.8 |
| 20260505204848 | 28 | 246 | 12.9 | 20.9 | 0.00 | 0.00 | 0.00 | 27 | 1007.4 |
| 20260505204528 | 28 | 247 | 11.3 | 35.4 | 0.00 | 0.00 | 0.00 | 28 | 1007.9 |
| 20260505204346 | 28 | 209 | 8.0 | 9.7 | 0.00 | 0.00 | 0.00 | 28 | 1007.6 |
| 20260505203843 | 28 | 216 | 6.4 | 12.9 | 0.00 | 0.00 | 0.00 | 27 | 1007.6 |
| 20260505203520 | 28 | 247 | 9.7 | 20.9 | 0.00 | 0.00 | 0.00 | 28 | 1008.0 |
| 20260505203339 | 28 | 250 | 8.0 | 11.3 | 0.00 | 0.00 | 0.00 | 29 | 1007.7 |
| 20260505202836 | 28 | 228 | 20.9 | 32.2 | 0.00 | 0.00 | 0.00 | 28 | 1008.1 |
| 20260505202528 | 28 | 230 | 11.3 | 35.4 | 0.00 | 0.00 | 0.00 | 28 | 1008.1 |
| 20260505202331 | 28 | 260 | 12.9 | 16.1 | 0.00 | 0.00 | 0.00 | 28 | 1007.9 |
| 20260505201828 | 28 | 238 | 14.5 | 32.2 | 0.00 | 0.00 | 0.00 | 28 | 1007.8 |
| 20260505201520 | 28 | 240 | 11.3 | 33.8 | 0.00 | 0.00 | 0.00 | 27 | 1008.1 |
| 20260505201326 | 28 | 225 | 6.4 | 11.3 | 0.00 | 0.00 | 0.00 | 27 | 1007.8 |
| 20260505200824 | 28 | 237 | 8.0 | 12.9 | 0.00 | 0.00 | 0.00 | 27 | 1007.9 |
| 20260505200528 | 28 | 238 | 9.7 | 27.4 | 0.00 | 0.00 | 0.00 | 29 | 1008.0 |
| 20260505200320 | 28 | 250 | 9.7 | 14.5 | 0.00 | 0.00 | 0.00 | 29 | 1007.7 |
| 20260505195816 | 28 | 233 | 24.1 | 27.4 | 0.00 | 0.00 | 0.00 | 29 | 1007.9 |
| 20260505195520 | 28 | 236 | 9.7 | 32.2 | 0.00 | 0.00 | 0.00 | 29 | 1008.0 |
| 20260505195314 | 28 | 259 | 4.8 | 9.7 | 0.00 | 0.00 | 0.00 | 30 | 1007.9 |
| 20260505194811 | 28 | 218 | 11.3 | 27.4 | 0.00 | 0.00 | 0.00 | 30 | 1007.8 |
| 20260505194528 | 28 | 247 | 12.9 | 35.4 | 0.00 | 0.00 | 0.00 | 30 | 1008.2 |
| 20260505194308 | 28 | 239 | 17.7 | 22.5 | 0.00 | 0.00 | 0.00 | 30 | 1007.9 |
| 20260505193803 | 28 | 223 | 8.0 | 11.3 | 0.00 | 0.00 | 0.00 | 30 | 1008.0 |
| 20260505193520 | 28 | 219 | 12.9 | 32.2 | 0.00 | 0.00 | 0.00 | 30 | 1008.4 |
| 20260505193301 | 28 | 208 | 14.5 | 25.7 | 0.00 | 0.00 | 0.00 | 30 | 1008.2 |
| 20260505192759 | 28 | 222 | 14.5 | 16.1 | 0.00 | 0.00 | 0.00 | 29 | 1008.4 |
| 20260505192528 | 28 | 221 | 12.9 | 35.4 | 0.00 | 0.00 | 0.00 | 29 | 1008.5 |
| 20260505192256 | 28 | 232 | 6.4 | 11.3 | 0.00 | 0.00 | 0.00 | 30 | 1008.3 |
| 20260505191754 | 28 | 200 | 11.3 | 17.7 | 0.00 | 0.00 | 0.00 | 30 | 1008.2 |
| 20260505191520 | 28 | 250 | 12.9 | 27.4 | 0.00 | 0.00 | 0.00 | 29 | 1008.7 |
| 20260505191252 | 28 | 245 | 20.9 | 25.7 | 0.00 | 0.00 | 0.00 | 29 | 1008.4 |
| 20260505190748 | 28 | 138 | 14.5 | 24.1 | 0.00 | 0.00 | 0.00 | 29 | 1008.6 |
| 20260505190528 | 28 | 237 | 12.9 | 24.1 | 0.00 | 0.00 | 0.00 | 30 | 1008.7 |
| 20260505190243 | 28 | 259 | 14.5 | 20.9 | 0.00 | 0.00 | 0.00 | 30 | 1008.6 |
| 20260505185740 | 28 | 264 | 6.4 | 9.7 | 0.00 | 0.00 | 0.00 | 31 | 1008.6 |
| 20260505185520 | 28 | 236 | 11.3 | 32.2 | 0.00 | 0.00 | 0.00 | 30 | 1008.9 |
| 20260505185237 | 28 | 23 | 12.9 | 17.7 | 0.00 | 0.00 | 0.00 | 30 | 1008.5 |
| 20260505184733 | 28 | 218 | 19.3 | 35.4 | 0.00 | 0.00 | 0.00 | 30 | 1008.9 |
| 20260505184548 | 28 | 210 | 14.5 | 32.2 | 0.00 | 0.00 | 0.00 | 31 | 1009.2 |
| 20260505184230 | 28 | 228 | 14.5 | 24.1 | 0.00 | 0.00 | 0.00 | 32 | 1008.8 |
| 20260505183727 | 28 | 212 | 8.0 | 11.3 | 0.00 | 0.00 | 0.00 | 32 | 1009.0 |
| 20260505183521 | 28 | 225 | 16.1 | 43.5 | 0.00 | 0.00 | 0.00 | 31 | 1009.2 |
| 20260505183224 | 28 | 227 | 17.7 | 24.1 | 0.00 | 0.00 | 0.00 | 30 | 1008.8 |
| 20260505182721 | 28 | 216 | 20.9 | 35.4 | 0.00 | 0.00 | 0.00 | 32 | 1009.0 |
| 20260505182528 | 28 | 220 | 11.3 | 22.5 | 0.00 | 0.00 | 0.00 | 33 | 1009.1 |
| 20260505182218 | 28 | 239 | 14.5 | 22.5 | 0.00 | 0.00 | 0.00 | 33 | 1008.9 |
| 20260505181714 | 28 | 241 | 9.7 | 16.1 | 0.00 | 0.00 | 0.00 | 34 | 1009.2 |
| 20260505181521 | 28 | 243 | 8.0 | 16.1 | 0.00 | 0.00 | 0.00 | 34 | 1009.2 |
| 20260505181212 | 28 | 162 | 6.4 | 9.7 | 0.00 | 0.00 | 0.00 | 35 | 1009.0 |
| 20260505180708 | 28 | 246 | 9.7 | 16.1 | 0.00 | 0.00 | 0.00 | 33 | 1009.0 |
| 20260505180528 | 28 | 245 | 8.0 | 20.9 | 0.00 | 0.00 | 0.00 | 35 | 1009.3 |
| 20260505180205 | 28 | 214 | 9.7 | 14.5 | 0.00 | 0.00 | 0.00 | 36 | 1009.0 |
| 20260505175701 | 28 | 207 | 8.0 | 9.7 | 0.00 | 0.00 | 0.00 | 36 | 1009.1 |
| 20260505175520 | 27 | 237 | 11.3 | 24.1 | 0.00 | 0.00 | 0.00 | 36 | 1009.5 |
| 20260505175157 | 27 | 243 | 11.3 | 14.5 | 0.00 | 0.00 | 0.00 | 35 | 1009.2 |
| 20260505174654 | 28 | 213 | 1.6 | 1.6 | 0.00 | 0.00 | 0.00 | 36 | 1009.1 |
| 20260505174528 | 27 | 248 | 11.3 | 33.8 | 0.00 | 0.00 | 0.00 | 36 | 1009.5 |
| 20260505174150 | 27 | 251 | 8.0 | 12.9 | 0.00 | 0.00 | 0.00 | 36 | 1009.2 |
| 20260505173647 | 27 | 243 | 17.7 | 25.7 | 0.00 | 0.00 | 0.00 | 36 | 1009.3 |
| 20260505173520 | 27 | 237 | 9.7 | 27.4 | 0.00 | 0.00 | 0.00 | 37 | 1009.6 |
| 20260505173144 | 27 | 227 | 20.9 | 27.4 | 0.00 | 0.00 | 0.00 | 37 | 1009.5 |
| 20260505172641 | 27 | 261 | 4.8 | 9.7 | 0.00 | 0.00 | 0.00 | 38 | 1009.6 |
| 20260505172528 | 27 | 232 | 9.7 | 25.7 | 0.00 | 0.00 | 0.00 | 38 | 1010.0 |
| 20260505172137 | 27 | 257 | 14.5 | 22.5 | 0.00 | 0.00 | 0.00 | 39 | 1009.7 |
| 20260505171632 | 27 | 198 | 8.0 | 11.3 | 0.00 | 0.00 | 0.00 | 38 | 1009.6 |
| 20260505171532 | 27 | 254 | 8.0 | 14.5 | 0.00 | 0.00 | 0.00 | 39 | 1009.9 |
| 20260505171129 | 27 | 246 | 9.7 | 12.9 | 0.00 | 0.00 | 0.00 | 38 | 1009.7 |
| 20260505170627 | 27 | 239 | 3.2 | 3.2 | 0.00 | 0.00 | 0.00 | 39 | 1009.7 |
| 20260505170529 | 27 | 234 | 6.4 | 16.1 | 0.00 | 0.00 | 0.00 | 39 | 1010.0 |
| 20260505170123 | 26 | 219 | 8.0 | 12.9 | 0.00 | 0.00 | 0.00 | 39 | 1009.8 |
| 20260505165618 | 26 | 263 | 11.3 | 14.5 | 0.00 | 0.00 | 0.00 | 40 | 1009.9 |
| 20260505165520 | 26 | 241 | 9.7 | 20.9 | 0.00 | 0.00 | 0.00 | 41 | 1010.2 |
| 20260505165114 | 26 | 203 | 8.0 | 9.7 | 0.00 | 0.00 | 0.00 | 41 | 1010.0 |
| 20260505164609 | 26 | 248 | 6.4 | 9.7 | 0.00 | 0.00 | 0.00 | 41 | 1010.0 |
| 20260505164529 | 26 | 245 | 9.7 | 20.9 | 0.00 | 0.00 | 0.00 | 41 | 1010.4 |
| 20260505164108 | 26 | 356 | 9.7 | 11.3 | 0.00 | 0.00 | 0.00 | 41 | 1010.2 |
| 20260505163606 | 26 | 243 | 9.7 | 12.9 | 0.00 | 0.00 | 0.00 | 40 | 1010.3 |
| 20260505163521 | 26 | 256 | 4.8 | 14.5 | 0.00 | 0.00 | 0.00 | 41 | 1010.5 |
| 20260505163103 | 26 | 237 | 6.4 | 8.0 | 0.00 | 0.00 | 0.00 | 42 | 1010.1 |
| 20260505162600 | 26 | 260 | 11.3 | 17.7 | 0.00 | 0.00 | 0.00 | 41 | 1010.4 |
| 20260505162529 | 26 | 265 | 6.4 | 17.7 | 0.00 | 0.00 | 0.00 | 41 | 1010.7 |
| 20260505162058 | 26 | 272 | 4.8 | 4.8 | 0.00 | 0.00 | 0.00 | 41 | 1010.5 |
| 20260505161601 | 25 | 224 | 9.7 | 22.5 | 0.00 | 0.00 | 0.00 | 43 | 1010.8 |
| 20260505161554 | 25 | 207 | 12.9 | 16.1 | 0.00 | 0.00 | 0.00 | 43 | 1010.3 |
| 20260505161052 | 26 | 222 | 16.1 | 17.7 | 0.00 | 0.00 | 0.00 | 42 | 1010.6 |
| 20260505160550 | 25 | 222 | 3.2 | 4.8 | 0.00 | 0.00 | 0.00 | 43 | 1010.6 |
| 20260505153026 | 24 | 235 | 4.8 | 8.0 | 0.00 | 0.00 | 0.00 | 47 | 1011.1 |
| 20260505152529 | 23 | 240 | 8.0 | 17.7 | 0.00 | 0.00 | 0.00 | 47 | 1011.4 |
| 20260505152523 | 23 | 219 | 8.0 | 9.7 | 0.00 | 0.00 | 0.00 | 47 | 1011.2 |
| 20260505152019 | 23 | 229 | 4.8 | 4.8 | 0.00 | 0.00 | 0.00 | 47 | 1011.2 |
| 20260505151541 | 23 | 237 | 6.4 | 16.1 | 0.00 | 0.00 | 0.00 | 47 | 1011.4 |
| 20260505151514 | 23 | 222 | 8.0 | 11.3 | 0.00 | 0.00 | 0.00 | 47 | 1011.1 |
| 20260505151012 | 23 | 232 | 6.4 | 9.7 | 0.00 | 0.00 | 0.00 | 48 | 1011.1 |
| 20260505150529 | 23 | 231 | 9.7 | 20.9 | 0.00 | 0.00 | 0.00 | 48 | 1011.5 |
| 20260505150508 | 23 | 238 | 12.9 | 16.1 | 0.00 | 0.00 | 0.00 | 48 | 1011.3 |
| 20260505140529 | 21 | 229 | 8.0 | 17.7 | 0.00 | 0.00 | 0.00 | 55 | 1011.9 |
| 20260505140433 | 21 | 201 | 12.9 | 16.1 | 0.00 | 0.00 | 0.00 | 54 | 1011.5 |
| 20260505124846 | 18 | 241 | 3.2 | 3.2 | 0.00 | 0.00 | 0.00 | 70 | 1011.4 |
| 20260505124529 | 17 | 245 | 3.2 | 4.8 | 0.00 | 0.00 | 0.00 | 71 | 1011.7 |
| 20260505124343 | 17 | 246 | 1.6 | 3.2 | 0.00 | 0.00 | 0.00 | 71 | 1011.3 |
| 20260505123839 | 17 | 241 | 1.6 | 1.6 | 0.00 | 0.00 | 0.00 | 72 | 1011.3 |
| 20260505123601 | 17 | 239 | 1.6 | 8.0 | 0.00 | 0.00 | 0.00 | 74 | 1011.7 |
| 20260505123336 | 17 | 256 | 3.2 | 3.2 | 0.00 | 0.00 | 0.00 | 73 | 1011.6 |